Weather History for Chamberlain, SD

Change the Weather History Date:

Wednesday, November 21, 2012

  Actual Average Record
Temperature  
Mean Temperature 56 °F -  
Max Temperature 75 °F 39 °F 75 °F (2012)
Min Temperature 37 °F 20 °F 1 °F (2000)
Degree Days  
Heating Degree Days 9    
Growing Degree Days 6 (Base 50)    
Moisture  
Dew Point 26 °F    
Average Humidity 39    
Maximum Humidity 65    
Minimum Humidity 17    
Precipitation  
Precipitation 0.00 in - - ()
Sea Level Pressure  
Sea Level Pressure 29.76 in    
Wind  
Wind Speed 6 mph (SSW)    
Max Wind Speed 16 mph    
Max Gust Speed -    
Averages and records for this station are not official NWS values.
T = Trace of Precipitation, MM = Missing Value Source: NWS Daily Summary

Daily Weather History Graph

Daily Weather History Graph

Search for Another Location

Airport:

Trip Planner

Search our weather history database for the weather conditions in past years. The results will help you decide how hot, cold, wet, or windy it might be!

Date:

Astronomy

Nov. 21, 2012 Rise Set
Actual Time 7:40 AM CST 5:06 PM CST
Civil Twilight 7:08 AM CST 5:37 PM CST
Nautical Twilight 6:33 AM CST 6:13 PM CST
Astronomical Twilight 5:58 AM CST 6:47 PM CST
Moon 1:34 PM CST (11/21) 12:48 AM CST (11/21)
Length of Visible Light 10h 29m
Length of Day
9h 26m
First Quarter, 62% of the Moon is Illuminated
Nov 21
First Quarter
Nov 28
Full
Dec 6
Last Quarter
Dec 13
New
Dec 19
First Quarter

Hourly Weather History & Observations

Time (CST) Temp. Windchill Dew Point Humidity Pressure Visibility Wind Dir Wind Speed Gust Speed Precip Events Conditions
12:52 AM 43.0 °F - 28.0 °F 56% 29.93 in - Calm Calm - N/A   Unknown
1:52 AM 45.0 °F 43.5 °F 28.0 °F 52% 29.91 in - South 3.5 mph - N/A   Unknown
2:52 AM 41.0 °F 38.0 °F 27.0 °F 57% 29.90 in - SSE 4.6 mph - N/A   Unknown
3:52 AM 43.0 °F 40.3 °F 27.0 °F 53% 29.89 in - SW 4.6 mph - N/A   Unknown
4:52 AM 42.1 °F 40.2 °F 26.1 °F 53% 29.89 in - SSW 3.5 mph - N/A   Unknown
5:52 AM 37.0 °F 33.3 °F 26.1 °F 65% 29.90 in - SE 4.6 mph - N/A   Unknown
6:52 AM 37.9 °F 34.4 °F 26.1 °F 62% 29.88 in - SSE 4.6 mph - N/A   Unknown
7:52 AM 37.0 °F 34.5 °F 26.1 °F 65% 29.87 in - SSE 3.5 mph - N/A   Unknown
8:52 AM 41.0 °F 38.0 °F 28.9 °F 62% 29.86 in - South 4.6 mph - N/A   Unknown
9:52 AM 52.0 °F - 28.9 °F 41% 29.83 in - South 8.1 mph - N/A   Unknown
10:52 AM 60.1 °F - 27.0 °F 28% 29.81 in - SSW 3.5 mph - N/A   Unknown
11:52 AM 64.0 °F - 27.0 °F 25% 29.77 in - South 10.4 mph - N/A   Unknown
12:52 PM 69.1 °F - 27.0 °F 21% 29.73 in - SW 10.4 mph - N/A   Unknown
1:52 PM 71.1 °F - 27.0 °F 19% 29.69 in - SSW 11.5 mph - N/A   Unknown
2:52 PM 75.0 °F - 27.0 °F 17% 29.66 in - South 8.1 mph - N/A   Unknown
3:52 PM 71.1 °F - 28.0 °F 20% 29.65 in - SSW 8.1 mph - N/A   Unknown
4:52 PM 62.1 °F - 27.0 °F 26% 29.66 in - South 10.4 mph - N/A   Unknown
5:52 PM 55.0 °F - 26.1 °F 33% 29.66 in - South 11.5 mph - N/A   Unknown
6:52 PM 59.0 °F - 26.1 °F 28% 29.65 in - SW 5.8 mph - N/A   Unknown
7:52 PM 55.0 °F - 26.1 °F 33% 29.65 in - SW 9.2 mph - N/A   Unknown
8:52 PM 55.0 °F - 23.0 °F 29% 29.64 in - WSW 8.1 mph - N/A   Unknown
9:52 PM 57.9 °F - 23.0 °F 26% 29.63 in - SW 16.1 mph - N/A   Unknown
10:52 PM 57.0 °F - 23.0 °F 27% 29.61 in - WSW 15.0 mph - N/A   Unknown
11:52 PM 57.0 °F - 23.0 °F 27% 29.61 in - SW 16.1 mph - N/A   Unknown